Estevan, Canada

4:44 AM CST on September 29, 2016 (GMT -0600)
Estevan

Weather History for CYEN - March, 2013

Change the Weather History Date:

Wednesday, March 6, 2013

  Actual Average Record
Temperature  
Mean Temperature -1 °F -  
Max Temperature 8 °F 18 °F 63 °F (2016)
Min Temperature -10 °F 0 °F -25 °F (2008)
Degree Days  
Heating Degree Days 66    
Moisture  
Dew Point -1 °F    
Average Humidity 81    
Maximum Humidity 85    
Minimum Humidity 71    
Precipitation  
Precipitation 0.02 in - - ()
Sea Level Pressure  
Sea Level Pressure 30.37 in    
Wind  
Wind Speed 5 mph ()    
Max Wind Speed 20 mph    
Max Gust Speed -    
Visibility 6.0 miles    
Events Fog , Snow    
Averages and records for this station are not official NWS values.
T = Trace of Precipitation, MM = Missing Value Source: Averaged Metar Reports

Daily Weather History Graph

Daily Weather History Graph

Search for Another Location

Airport or City:

Trip Planner

Search our weather history database for the weather conditions in past years. The results will help you decide how hot, cold, wet, or windy it might be!

Date:

Astronomy

Mar. 06, 2013 Rise Set
Actual Time 7:23 AM CST 6:43 PM CST
Civil Twilight 6:51 AM CST 7:15 PM CST
Nautical Twilight 6:14 AM CST 7:52 PM CST
Astronomical Twilight 5:37 AM CST 8:29 PM CST
Moon 3:57 AM CST (3/6) 1:05 PM CST (3/6)
Length of Visible Light 12h 23m
Length of Day
11h 20m
Waning Crescent, 29% of the Moon is Illuminated
Mar 6
Waning Crescent
Mar 11
New
Mar 19
First Quarter
Mar 27
Full
Apr 2
Last Quarter

Hourly Weather History & Observations

Time (CST) Temp. Windchill Dew Point Humidity Pressure Visibility Wind Dir Wind Speed Gust Speed Precip Events Conditions
12:00 AM -6 °F - -10 °F 71% 30.50 in 0 mi South 5.8 mph - - Fog Partial Fog
12:00 AM -5.8 °F -18.4 °F -11.2 °F 77% 30.50 in 0.2 mi South 5.8 mph - N/A Fog Light Freezing Fog
1:00 AM -5.8 °F - -11.2 °F 77% 30.50 in 0.2 mi Calm Calm - N/A Fog Light Freezing Fog
1:20 AM - - - N/A% - 3.0 mi Calm Calm - N/A   Mist
2:00 AM -9.4 °F -22.7 °F -14.8 °F 77% 30.50 in 1.0 mi East 5.8 mph - N/A   Mist
2:41 AM - - - N/A% - 5.0 mi East 5.8 mph - N/A   Overcast
3:00 AM -5.8 °F -14.5 °F -11.2 °F 77% 30.47 in 10.0 mi East 3.5 mph - N/A Snow Light Snow
4:00 AM -0.4 °F -8.3 °F -4.0 °F 85% 30.47 in 13.0 mi ESE 3.5 mph - N/A Snow Light Snow
5:00 AM 3.2 °F - -0.4 °F 85% 30.45 in 13.0 mi Calm Calm - N/A Snow Light Snow
6:00 AM 4 °F - 1 °F 81% 30.44 in 15 mi Calm Calm - - Snow Light Snow
6:00 AM 5.0 °F - 1.4 °F 85% 30.44 in 15.0 mi Calm Calm - N/A Snow Light Snow
7:00 AM 3.2 °F - -0.4 °F 85% 30.43 in 10.0 mi ESE 2.3 mph - N/A Snow Light Snow
8:00 AM 1.4 °F - -2.2 °F 85% 30.43 in 4.0 mi ESE 2.3 mph - N/A Snow Light Snow
9:00 AM 1.4 °F - -2.2 °F 85% 30.43 in 4.0 mi East 2.3 mph - N/A Snow Light Snow
9:20 AM - - - N/A% - 5.0 mi East 2.3 mph - N/A   Mostly Cloudy
10:00 AM 3.2 °F - -0.4 °F 85% 30.41 in 5.0 mi East 2.3 mph - N/A   Mostly Cloudy
11:00 AM 5.0 °F - 1.4 °F 85% 30.40 in 5.0 mi East 2.3 mph - N/A   Mostly Cloudy
12:00 PM 7 °F - 3 °F 74% 30.38 in 7 mi ESE 2.3 mph - -   Partly Cloudy
12:00 PM 6.8 °F - 3.2 °F 85% 30.38 in 7.0 mi ESE 2.3 mph - N/A   Mostly Cloudy
1:00 PM 6.8 °F - 1.4 °F 79% 30.35 in 7.0 mi ESE 2.3 mph - N/A   Mostly Cloudy
2:00 PM 6.8 °F - 1.4 °F 79% 30.32 in 7.0 mi ESE 2.3 mph - N/A   Mostly Cloudy
3:00 PM 8.6 °F -9.5 °F 3.2 °F 79% 30.29 in 8.0 mi ESE 17.3 mph - N/A   Mostly Cloudy
4:00 PM 8.6 °F -9.5 °F 3.2 °F 79% 30.28 in 8.0 mi ESE 17.3 mph - N/A   Mostly Cloudy
5:00 PM 8.6 °F -9.5 °F 3.2 °F 79% 30.27 in 8.0 mi ESE 17.3 mph - N/A Snow Low Drifting Snow
6:00 PM 8 °F - 4 °F 76% 30.24 in 7 mi ESE 17.3 mph - - Snow Snow
6:00 PM 8.6 °F -9.5 °F 3.2 °F 79% 30.24 in 8.0 mi ESE 17.3 mph - N/A Snow Low Drifting Snow
6:29 PM - - - N/A% - 2.0 mi ESE 13.8 mph - N/A   Ice Crystals
7:00 PM 6.8 °F -12.9 °F 3.2 °F 85% 30.24 in 2.0 mi ESE 19.6 mph - N/A Snow Ice Crystals
8:00 PM 6.8 °F -11.8 °F 3.2 °F 85% 30.24 in 2.0 mi ESE 17.3 mph - N/A Snow Ice Crystals
9:00 PM 6.8 °F -11.8 °F 3.2 °F 85% 30.22 in 2.0 mi ESE 17.3 mph - N/A Snow Ice Crystals
10:00 PM 6.8 °F -12.9 °F 3.2 °F 85% 30.22 in 2.0 mi ESE 19.6 mph - N/A Snow Light Snow
11:00 PM 6.8 °F -11.8 °F 3.2 °F 85% 30.21 in 5.0 mi ESE 17.3 mph - N/A Snow Light Snow